Hourly Weather Roundup
Issued by NWS Central Illinois

Home | Current Version | Previous Version | Text Only | Print | Product List | Glossary On
Versions: 1 2 3 4 5 6 7 8 9 10 11 12 13 14 15 16 17 18 19 20 21 22 23 24 25 26 27 28 29 30 31 32 33 34 35 36 37 38 39 40 41 42 43 44 45 46 47 48 49 50
000
NZUS43 KILX 070610
HWRILX

AREA WEATHER ROUNDUP
NATIONAL WEATHER SERVICE, LINCOLN IL
1200 AM CST SUN FEB 07 2016


CITY           SKY/WX    TMP DP  RH WIND       PRES   REMARKS
BLOOMINGTON    PTCLDY    31  30  96 SW8       30.09F WCI  24
6HR MIN TEMP:  31; 6HR MAX TEMP:  36;

CHAMPAIGN      CLEAR     32  28  85 S9        30.11F WCI  24
6HR MIN TEMP:  31; 6HR MAX TEMP:  36;

DANVILLE       CLEAR     35  27  74 SW9       30.09F WCI  27
6HR MIN TEMP:  34; 6HR MAX TEMP:  37;

DECATUR        CLEAR     34  27  75 SW7       30.11F WCI  28
6HR MIN TEMP:  34; 6HR MAX TEMP:  41;

EFFINGHAM      CLEAR     40  26  56 S9        30.17F WCI  34
FLORA          PTCLDY    38  26  62 SW8       30.19F WCI  32
6HR MIN TEMP:  35; 6HR MAX TEMP:  43;

GALESBURG      PTCLDY    35  30  84 SW8       30.05S WCI  28
JACKSONVILLE   CLEAR     39  30  70 SW6       30.11S WCI  35
6HR MIN TEMP:  37; 6HR MAX TEMP:  46;

LACON          PTCLDY    33  26  76 S3        30.06F
6HR MIN TEMP:  28; 6HR MAX TEMP:  38;

LAWRENCEVILLE  CLEAR     36  26  67 S12       30.19F WCI  28
6HR MIN TEMP:  32; 6HR MAX TEMP:  40;

LITCHFIELD     CLEAR     35  28  75 S9        30.14F WCI  27
$$


CITY           SKY/WX    TMP DP  RH WIND       PRES   REMARKS
LINCOLN        CLEAR     33  30  91 CALM      30.11S
6HR MIN TEMP:  32; 6HR MAX TEMP:  41;

MACOMB         PTCLDY    37  30  77 SW10      30.08F WCI  29
MATTOON        CLEAR     40  24  53 S10       30.13F WCI  33
6HR MIN TEMP:  39; 6HR MAX TEMP:  44;

MT CARMEL AP   PTCLDY    37  25  60 SW12      30.19F WCI  30
OLNEY-NOBLE AP CLEAR     37  27  65 SW7       30.19F WCI  32
PARIS          PTCLDY    37  28  68 S12       30.14F WCI  29
6HR MIN TEMP:  32; 6HR MAX TEMP:  38;

PEORIA         CLEAR     31  25  78 S6        30.08F WCI  25
6HR MIN TEMP:  29; 6HR MAX TEMP:  40;

PONTIAC        PTCLDY    35  32  88 S6        30.08F WCI  30
RANTOUL        CLEAR     37  31  79 SW7       30.10F WCI  31
6HR MIN TEMP:  35; 6HR MAX TEMP:  38;

ROBINSON       PTCLDY    39  25  57 SW12      30.19S WCI  31
6HR MIN TEMP:  32; 6HR MAX TEMP:  39;

SPRINGFIELD    CLEAR     36  28  73 SW3       30.12F
6HR MIN TEMP:  35; 6HR MAX TEMP:  45;

TAYLORVILLE    CLEAR     34  28  80 S8        30.13S WCI  27
$$

...REGIONAL REPORTS...


CITY           SKY/WX    TMP DP  RH WIND       PRES   REMARKS
CHICAGO O`HARE PTCLDY    34  29  82 S7        30.04F WCI  28
KANKAKEE       CLEAR     31  28  90 SW5       30.08F WCI  26
MOLINE         MOCLDY    39  29  67 SW9       30.01F WCI  33
MOUNT STERLING PTCLDY    34  27  75 SW7       30.08F WCI  28
MOUNT VERNON   CLEAR     36  23  60 SW8       30.20F WCI  29
PITTSFIELD     PTCLDY    38  29  72 S6        30.12S WCI  33
QUINCY         PTCLDY    35  27  72 SW9       30.09S WCI  28
ROCKFORD       CLOUDY    33  30  88 S5        30.03F WCI  29
$$


CITY           SKY/WX    TMP DP  RH WIND       PRES   REMARKS
BURLINGTON     PTCLDY    35  30  82 S9        30.04F WCI  28
CEDAR RAPIDS   CLOUDY    35  31  85 S16       29.93F WCI  25
DES MOINES     CLOUDY    40  27  59 SW16      29.91F WCI  31
KIRKSVILLE     CLOUDY    38  28  67 SW10      30.07S WCI  31
OTTUMWA        CLOUDY    37  30  75 S14       29.98F WCI  28
ST LOUIS       PTCLDY    43  24  47 SW9       30.16S
$$


CITY           SKY/WX    TMP DP  RH WIND       PRES   REMARKS
TERRE HAUTE    CLEAR     39  24  55 S10       30.15F WCI  32
EVANSVILLE     CLEAR     36  24  62 SW7       30.23F WCI  30
INDIANAPOLIS   CLEAR     33  23  66 S9        30.14F WCI  25
LAFAYETTE      CLEAR     34  25  69 SW5       30.12F WCI  30
MADISON        CLOUDY    32  28  85 S9        29.96F WCI  24
MILWAUKEE      CLOUDY    32  27  81 SW7       30.00F WCI  26
$$





USA.gov is the U.S. government's official web portal to all federal, state and local government web resources and services.